{"data":{"norad_id":48243,"intl_designator":"2021-031AK","name":"ONEWEB-0208","alt_names":[],"object_type":"PAYLOAD","status":"ACTIVE","operator":null,"country":"UK","launch_date":"2021-04-25","launch_site_code":"VOSTO","launch_vehicle":null,"mission":null,"orbit_class":"UNKNOWN","rcs_meters":null,"size_class":null,"mass_kg":null,"dimensions":null,"purposes":["comms"],"wikipedia_slug":null,"has_3d_model":false,"image_url":null,"decayed_at":null,"tle_current":{"epoch":"2026-09-18T07:51:31.583232Z","epoch_age_seconds":195496,"freshness":"STALE","line1":"1 48243U 21031AK  26261.32744888  .00000289  00000+0  74545-3 0  9995","line2":"2 48243  87.8897 271.1291 0001610  87.7973 272.3341 13.14502181260547","mean_motion":13.14502181,"eccentricity":0.000161,"inclination_deg":87.8897,"raan_deg":271.1291,"arg_perigee_deg":87.7973,"mean_anomaly_deg":272.3341,"bstar":0.00074545,"rev_number":26054,"period_min":109.54717465014,"perigee_km":1204.5717228075,"apogee_km":1207.0137481823,"semimajor_km":7583.9297354949,"source":"CELESTRAK","updated_at":"2026-09-20T09:00:44.613838Z"}}}